Home   Weather   New Washington   Past weeks
Flag for USA

Past Weather in New Washington, Indiana, USA — Yesterday and Last 2 Weeks

Now
46 °F

Passing clouds.


Feels Like: 45 °F
Forecast: 59 / 29 °F
Wind: 3 mph from North

Location: Standiford Field

Current Time: Mar 23, 2019 at 1:11:53 pm

Latest Report: Mar 23, 2019 at 11:56 am


Visibility: 10 mi

Pressure: 30.37 "Hg

Humidity: 46%

Dew Point: 26 °F

Location of New WashingtonLocation

Past Weather in New Washington — Graph

°F

New Washington Temperature Yesterday

Maximum temperature yesterday: 59 °F (at 1:56 pm)
Minimum temperature yesterday: 39 °F (at 5:56 am)
Average temperature yesterday: 48 °F

High & Low Weather Summary for the Past Weeks

 TemperatureHumidityPressure
High78 °F (Mar 14, 3:56 pm)90% (Mar 8, 11:59 am)30.48 "Hg (Mar 8, 11:59 am)
Low31 °F (Mar 17, 5:56 am)21% (Mar 20, 2:56 pm)29.54 "Hg (Mar 9, 6:56 pm)
Average48 °F56%30.14 "Hg
* Reported Mar 8 10:56 am — Mar 23 11:56 am, New Washington. Weather by CustomWeather, © 2019

Note: Actual official high and low records may vary slightly from our data, if they occured in-between our weather recording intervals... More about our weather records

Advertising

New Washington Weather History for the Previous 24 Hours

Scroll right to see more
 ConditionsComfort  
Time TempWeatherWind HumidityBarometerVisibility
11:56 am
Sat, Mar 23
46 °FPassing clouds.3 mph46%30.37 "Hg10 mi
10:56 am42 °FPassing clouds.No wind53%30.37 "Hg10 mi
9:56 am38 °FPassing clouds.3 mph60%30.35 "Hg10 mi
8:56 am36 °FSunny.No wind64%30.34 "Hg10 mi
7:56 am32 °FSunny.5 mph66%30.31 "Hg10 mi
6:56 am33 °FClear.6 mph63%30.27 "Hg10 mi
5:56 am35 °FClear.7 mph61%30.26 "Hg10 mi
4:56 am35 °FClear.6 mph67%30.25 "Hg10 mi
3:56 am36 °FClear.9 mph64%30.25 "Hg10 mi
2:56 am39 °FClear.5 mph57%30.24 "Hg10 mi
1:56 am41 °FClear.6 mph53%30.23 "Hg10 mi
12:56 am40 °FClear.6 mph55%30.22 "Hg10 mi
11:56 pm
Fri, Mar 22
44 °FClear.14 mph47%30.21 "Hg10 mi
10:56 pm45 °FClear.6 mph44%30.19 "Hg10 mi
9:56 pm46 °FClear.9 mph40%30.17 "Hg10 mi
8:56 pm48 °FClear.9 mph37%30.15 "Hg10 mi
7:56 pm50 °FPassing clouds.12 mph35%30.13 "Hg10 mi
6:56 pm54 °FPassing clouds.15 mph33%30.09 "Hg10 mi
5:56 pm56 °FPassing clouds.17 mph33%30.07 "Hg10 mi
4:56 pm58 °FPassing clouds.17 mph33%30.05 "Hg10 mi
3:56 pm58 °FPassing clouds.16 mph35%30.03 "Hg10 mi
2:56 pm57 °FBroken clouds.21 mph39%30.03 "Hg10 mi
1:56 pm59 °FScattered clouds.17 mph38%30.02 "Hg10 mi
Weather by CustomWeather, © 2019

See weather overview